This is the latest recevied weather packets stored in our database for station/object S50ME-11. If no packets are shown the sender has not sent any weather packets the latest 10 day(s).
| Time | Temp. | Humidity | Pressure | Rain* | Wind** | Luminosity | Snow |
|---|---|---|---|---|---|---|---|
| 1777977087 | 31.11° C | 34% | 1012.4 hPa | - | - | - | - |
| 1777977055 | 31.11° C | 34% | 1012.4 hPa | - | - | - | - |
| 1777977052 | 31.11° C | 34% | 1012.4 hPa | - | - | - | - |
| 1777976155 | 32.22° C | 34% | 1011.8 hPa | - | - | - | - |
| 1777976152 | 32.22° C | 34% | 1011.8 hPa | - | - | - | - |
| 1777975372 | 32.22° C | 34% | 1011.7 hPa | - | - | - | - |
| 1777975256 | 32.22° C | 34% | 1011.7 hPa | - | - | - | - |
| 1777975252 | 32.22° C | 34% | 1011.7 hPa | - | - | - | - |
| 1777974354 | 31.11° C | 35% | 1013 hPa | - | - | - | - |
| 1777974351 | 31.11° C | 35% | 1013 hPa | - | - | - | - |
| 1777973454 | 30.56° C | 35% | 1011.8 hPa | - | - | - | - |
| 1777973451 | 30.56° C | 35% | 1011.8 hPa | - | - | - | - |
| 1777972554 | 30.56° C | 35% | 1012.5 hPa | - | - | - | - |
| 1777972551 | 30.56° C | 35% | 1012.5 hPa | - | - | - | - |
| 1777971650 | 29.44° C | 36% | 1012.6 hPa | - | - | - | - |
| 1777970754 | 29.44° C | 36% | 1012.7 hPa | - | - | - | - |
| 1777970750 | 29.44° C | 36% | 1012.7 hPa | - | - | - | - |
| 1777969853 | 28.89° C | 36% | 1013.2 hPa | - | - | - | - |
| 1777969850 | 28.89° C | 36% | 1013.2 hPa | - | - | - | - |
| 1777968953 | 28.33° C | 36% | 1013.2 hPa | - | - | - | - |
| 1777968950 | 28.33° C | 36% | 1013.2 hPa | - | - | - | - |
| 1777968049 | 27.78° C | 37% | 1013.2 hPa | - | - | - | - |
| 1777967152 | 27.22° C | 37% | 1013.2 hPa | - | - | - | - |
| 1777967149 | 27.22° C | 37% | 1013.2 hPa | - | - | - | - |
| 1777966251 | 26.67° C | 37% | 1012.9 hPa | - | - | - | - |
* Rain since midnight (hover to see other rain measurements)
** Current wind speed in m/s (hover to see current wind gust speed)